Resia Pass, Italy

11:11 AM CET on January 19, 2018 (GMT +0100)
Resia Pass

Weather History for LIVE - March, 2013

Change the Weather History Date:

Friday, March 15, 2013

  Actual Average Record
Temperature  
Mean Temperature 30 °F -  
Max Temperature 44 °F 46 °F 64 °F (2012)
Min Temperature 15 °F 26 °F 15 °F (2006)
Degree Days  
Heating Degree Days 36    
Moisture  
Dew Point -4 °F    
Average Humidity 35    
Maximum Humidity 49    
Minimum Humidity 22    
Precipitation  
Precipitation 0.00 in - - ()
Sea Level Pressure  
Sea Level Pressure 29.63 in    
Wind  
Wind Speed 10 mph ()    
Max Wind Speed 15 mph    
Max Gust Speed 37 mph    
Visibility 6.2 miles    
Events      
Averages and records for this station are not official NWS values.
T = Trace of Precipitation, MM = Missing Value Source: Averaged Metar Reports

Daily Weather History Graph

Daily Weather History Graph

Search for Another Location

Airport or City:

Trip Planner

Search our weather history database for the weather conditions in past years. The results will help you decide how hot, cold, wet, or windy it might be!

Date:

Astronomy

Mar. 15, 2013 Rise Set
Actual Time 6:30 AM CET 6:23 PM CET
Civil Twilight 6:00 AM CET 6:53 PM CET
Nautical Twilight 5:25 AM CET 7:29 PM CET
Astronomical Twilight 4:49 AM CET 8:05 PM CET
Moon 7:55 AM CET (3/15) 10:39 PM CET (3/15)
Length of Visible Light 12h 53m
Length of Day
11h 52m
Waxing Crescent, 14% of the Moon is Illuminated
Mar 15
Waxing Crescent
Mar 19
First Quarter
Mar 27
Full
Apr 3
Last Quarter
Apr 10
New

Hourly Weather History & Observations

Time (CET) Temp. Windchill Dew Point Humidity Pressure Visibility Wind Dir Wind Speed Gust Speed Precip Events Conditions
12:55 AM 17.6 °F 5.0 °F -2.2 °F 42% 29.47 in - NNW 11.5 mph 31.1 mph N/A   Clear
1:55 AM 17.6 °F 5.0 °F -0.4 °F 45% 29.50 in - NNW 11.5 mph 31.1 mph N/A   Clear
2:55 AM 15.8 °F 2.1 °F -0.4 °F 49% 29.50 in - NNW 12.7 mph 26.5 mph N/A   Clear
3:55 AM 15.8 °F 2.1 °F -0.4 °F 49% 29.50 in - NNW 12.7 mph 31.1 mph N/A   Clear
4:55 AM 15.8 °F 0.9 °F -2.2 °F 45% 29.50 in - NNW 15.0 mph 31.1 mph N/A   Clear
5:55 AM 15.8 °F 1.4 °F -2.2 °F 45% 29.50 in - NNW 13.8 mph 34.5 mph N/A   Clear
6:55 AM 15.8 °F 2.1 °F -2.2 °F 45% 29.53 in 6.2 mi NNW 12.7 mph 32.2 mph N/A   Partly Cloudy
7:55 AM 15.8 °F 2.1 °F -2.2 °F 45% 29.53 in 6.2 mi NNW 12.7 mph 33.4 mph N/A   Partly Cloudy
8:55 AM 17.6 °F 4.3 °F -2.2 °F 42% 29.56 in 6.2 mi North 12.7 mph 28.8 mph N/A   Partly Cloudy
9:55 AM 17.6 °F 3.7 °F -2.2 °F 42% 29.59 in 6.2 mi North 13.8 mph 35.7 mph N/A   Scattered Clouds
10:55 AM 23.0 °F 11.7 °F -2.2 °F 33% 29.62 in 6.2 mi North 11.5 mph 36.8 mph N/A   Scattered Clouds
11:55 AM 23.0 °F 12.4 °F -5.8 °F 28% 29.62 in 6.2 mi North 10.4 mph 25.3 mph N/A   Scattered Clouds
12:55 PM 24.8 °F 14.6 °F -7.6 °F 24% 29.65 in 6.2 mi North 10.4 mph 24.2 mph N/A   Partly Cloudy
1:55 PM 26.6 °F 16.8 °F -5.8 °F 24% 29.65 in 6.2 mi North 10.4 mph 23.0 mph N/A   Scattered Clouds
2:55 PM 26.6 °F 17.5 °F -5.8 °F 24% 29.62 in 6.2 mi North 9.2 mph - N/A   Scattered Clouds
3:55 PM 26.6 °F 16.8 °F -5.8 °F 24% 29.65 in 6.2 mi North 10.4 mph 27.6 mph N/A   Scattered Clouds
4:55 PM 24.8 °F 15.3 °F -9.4 °F 22% 29.68 in - North 9.2 mph 20.7 mph N/A   Clear
5:55 PM 21.2 °F 12.6 °F -9.4 °F 26% 29.71 in - NNW 6.9 mph 18.4 mph N/A   Clear
6:55 PM 21.2 °F 11.7 °F -7.6 °F 28% 29.74 in - NNW 8.1 mph - N/A   Clear
7:55 PM 44.6 °F 41.4 °F 14.0 °F 29% 29.77 in - North 5.8 mph - N/A   Clear
8:55 PM 17.6 °F 9.3 °F -7.6 °F 32% 29.77 in - North 5.8 mph - N/A   Clear
9:55 PM 17.6 °F 9.3 °F -7.6 °F 32% 29.77 in - North 5.8 mph - N/A   Clear
10:55 PM 17.6 °F 10.7 °F -5.8 °F 35% 29.80 in - North 4.6 mph - N/A   Clear
11:55 PM 15.8 °F 4.2 °F -5.8 °F 38% 29.83 in - North 9.2 mph - N/A   Clear